sat.trackr.live / text

‹ back to catalog

STARLINK-6191

NORAD 56378 · 2023-061E

PAYLOAD ACTIVE UNKNOWN

§ Identity

Operator
Country
US
Launch date
2023-05-04
Launch site
AFETR
Launch vehicle
Mass (kg)
RCS (m²)

Purposes: comms

External: N2YO · Heavens-Above · Gunter

§ Orbital elements

Epoch: 2026-05-24T09:57:51.373152Z

Period
94.27 min
Inclination
43.0041°
Eccentricity
0.0001590
Mean motion
15.27576803 rev/d
Perigee alt
482.0 km
Apogee alt
484.1 km
Semi-major
6,861.2 km
B*
4.1673e-5
RAAN
130.0025°
Arg perigee
279.9066°
Mean anomaly
80.1607°
Rev number
16,833

§ Raw data

STARLINK-61911 56378U 23061E   26144.41517793  .00000885  00000+0  41673-4 0  99902 56378  43.0041 130.0025 0001590 279.9066  80.1607 15.27576803168335

JSON: /api/v1/satellites/56378 · /tle

For live sub-satellite position, see the globe view (requires WebGL).

§ Visibility from observer

Set your observer location to see the next 7 days of passes ≥ 10°. The values pass through the URL so the page stays shareable.

No JS? Fill the form by hand. The geolocation button needs JavaScript.